Tracking 25734 objects as of 29-May-2022
HD Live streaming from Space Station
objects crossing your sky now

CZ-4 DEB

Track CZ-4 DEB now!
10-day predictions


NORAD ID: 35567
Int'l Code: 2007-042G
Perigee: 838.7 km
Apogee: 862.9 km
Inclination: 98.7 °
Period: 101.8 minutes
Semi major axis: 7221 km
RCS: 0.0062 m2 (small)
Launch date: September 19, 2007
Source: People's Republic of China (PRC)
Launch site: Taiyaun Space Center, China (TSC)

Note: This is SATELLITE DEBRIS
aabbcc
Your satellite tracking list
Your tracking list is empty




NASA's NSSDC Master Catalog

Two Line Element Set (TLE):
1 35567U 07042G   22146.62378950  .00000726  00000-0  39965-3 0  9994
2 35567  98.7022 102.8650 0016721 104.2207 256.0825 14.14609547452876
Source of the keplerian elements: AFSPC